TimeCDT,TemperatureF,Dew PointF,Humidity,Sea Level PressureIn,VisibilityMPH,Wind Direction,Wind SpeedMPH,Gust SpeedMPH,PrecipitationIn,Events,Conditions,WindDirDegrees,DateUTC
12:52 AM,54.0,46.9,77,30.16,10.0,South,4.6,-,N/A,,Clear,170,2013-10-09 05:52:00
1:52 AM,50.0,45.0,83,30.18,10.0,Calm,Calm,-,N/A,,Clear,0,2013-10-09 06:52:00
2:52 AM,48.0,45.0,89,30.18,10.0,Calm,Calm,-,N/A,,Clear,0,2013-10-09 07:52:00
3:52 AM,51.1,46.9,86,30.19,10.0,South,5.8,-,N/A,,Clear,170,2013-10-09 08:52:00
4:52 AM,50.0,46.0,86,30.20,10.0,SSE,3.5,-,N/A,,Clear,160,2013-10-09 09:52:00
5:52 AM,45.0,43.0,93,30.22,10.0,Calm,Calm,-,N/A,,Clear,0,2013-10-09 10:52:00
6:52 AM,43.0,41.0,93,30.24,9.0,NNE,3.5,-,N/A,,Clear,20,2013-10-09 11:52:00
7:52 AM,46.9,44.1,90,30.25,10.0,Calm,Calm,-,N/A,,Clear,0,2013-10-09 12:52:00
8:52 AM,55.9,46.9,72,30.25,10.0,SSE,3.5,-,N/A,,Clear,160,2013-10-09 13:52:00
9:52 AM,60.1,46.0,60,30.25,10.0,South,5.8,-,N/A,,Clear,190,2013-10-09 14:52:00
10:52 AM,64.0,46.0,52,30.24,10.0,Variable,3.5,-,N/A,,Clear,0,2013-10-09 15:52:00
11:52 AM,66.9,44.1,44,30.23,10.0,SSW,3.5,-,N/A,,Clear,200,2013-10-09 16:52:00
12:52 PM,68.0,44.1,42,30.21,10.0,SE,5.8,-,N/A,,Clear,140,2013-10-09 17:52:00
1:52 PM,70.0,43.0,38,30.19,10.0,SE,4.6,-,N/A,,Clear,130,2013-10-09 18:52:00
2:52 PM,72.0,44.1,37,30.17,10.0,SSE,8.1,-,N/A,,Clear,160,2013-10-09 19:52:00
3:52 PM,72.0,43.0,35,30.16,10.0,East,8.1,-,N/A,,Clear,100,2013-10-09 20:52:00
4:52 PM,70.0,42.1,36,30.15,10.0,ESE,6.9,-,N/A,,Clear,120,2013-10-09 21:52:00
5:52 PM,66.0,46.9,50,30.15,10.0,East,8.1,-,N/A,,Clear,90,2013-10-09 22:52:00
6:52 PM,61.0,46.9,60,30.15,10.0,East,5.8,-,N/A,,Clear,100,2013-10-09 23:52:00
7:52 PM,57.0,46.0,67,30.17,10.0,Calm,Calm,-,N/A,,Clear,0,2013-10-10 00:52:00
8:52 PM,57.0,46.9,69,30.16,10.0,ESE,6.9,-,N/A,,Clear,110,2013-10-10 01:52:00
9:52 PM,54.0,46.0,75,30.17,10.0,Calm,Calm,-,N/A,,Clear,0,2013-10-10 02:52:00
10:52 PM,48.9,44.1,83,30.17,10.0,Calm,Calm,-,N/A,,Clear,0,2013-10-10 03:52:00
11:52 PM,48.9,46.9,93,30.16,10.0,Calm,Calm,-,N/A,,Clear,0,2013-10-10 04:52:00